Location: Cz?stochówka
(50.8142°N, 19.0915°E)
Time: 15:34:27
(UTC+00:00)

ATLAS 2AS CENTAUR R/B - Pass Details

Date: 13 January 2026
Orbit: 1050 x 1161 km, 63.7° (Epoch: 18 February)

Event Time Altitude Azimuth Distance (km) Brightness Sun altitude
Exits shadow 05:06:36 15° 316° (NW) 2,542 4.2 -14.3°
Maximum altitude 05:12:28 88° 227° (SW) 1,058 2.7 -13.4°
Drops below altitude 10° 05:19:14 10° 140° (SE) 2,866 5.9 -12.4°
Sets 05:21:51 0° 140° (SE) 3,824 6.7 -12.0°
